STARLINK-32326, 61674

Orbit data source: Space-Track

STARLINK-32326, 61674 is a payload satellite owned by SpaceX/Seattle (US) in LEO that was launched on Sat, 26 Oct 2024 UTC via an FALCON 9 launch vehicle from the Air Force Eastern Test Range (AFETR). Payload-class satellites include a variety of spacecraft equipped with specific instruments for various scientific and technological missions. These include communications satellites like Starlink; space stations such as the ISS; scientific satellites like the Hubble; Earth observation satellites from companies like Planet Labs, Umbra, and HawkEye 360; GPS; miniature CubeSats for education and research; and military/defense satellites.

Loading next visibility...
Identifier
61674, 2024-193P
Orbit
LEO
Country
Flag of USUS
Related business
Manufacturer
SpaceX/Seattle
Mission
Operational Commercial Communications
Bus & Motor
STARLINK V2M, Unknown motor
Mass
730 kg wet, ~700 kg dry
Launch date (UTC)
2024-10-26 (11 months ago)
Launch vehicle
FALCON 9
Launch site
Air Force Eastern Test Range (AFETR)
Object type
Payload
Rocket body
Debris
Shape & HBR
Box + 2 Pan, 14.5 m
Radar Cross Section
36.964 m², Large (>1 m²)

Expand to show TLE details & history
Last TLE update: 1 day ago

TLE from 1 day ago
0 STARLINK-32326
1 61674U 24193P   25258.21738072  .00005221  00000-0  18842-3 0  9991
2 61674  53.1593 185.8702 0001515  83.2021 276.9153 15.30173823 49662
Epoch: 2025-09-15T05:13Z
TLE epoch observation values (Epoch: 2025-09-15T05:13:01.694Z)
Latitude
0.00006°
Longitude
113.18799°
Altitude
476.068 km
Speed
7.629 km/s
True Right ascension
12h 23m 28s
True Declination
0° 00' 00"
Sunlit
Object was in daylight at epoch
Visualization orbit readout
Latitude
Unknown
Longitude
Unknown
Altitude
Unknown
Speed
Unknown
Apparent Right ascension
Unknown
Apparent Declination
Unknown
Sunlit
N/A
Visualization observer readout
Local Sidereal Time
00:04:29
Azimuth
Unknown
Elevation
Unknown
Doppler factor
Unknown
Orbital elements
Apogee altitude
476.588 km
Perigee altitude
474.511 km
Semi-major axis
6,853.687 km
Eccentricity
0.00015
Inclination
53.1593°
RAAN
185.8702°
Arg. of periapsis
83.2021°
True anomaly
276.89807°
Mean anomaly
276.9153°
Eccentric anomaly
276.90668°
Mean motion
3.82522 °/min
Orbital period
94.11 mins
BSTAR
0.00018842
Loading maneuver chart data...
Computing Atmospheric mass density...
Loading historical data...
Loading historical data...
Loading historical data...
Loading historical data...
Loading historical data...
Loading historical data...
Loading historical data...

Documentation

Showing up to 5 results
|